Content
SEND FEEDBACK

Daily
Averages
Monthly
Summary
Canada

QUEBEC CITY, QUEBEC


Home > North America > Canada > Quebec
Elevation: 72 meters     Latitude: 46 48N     Longitude: 071 23W

WEATHER
 
SELECT A DAY
Number of Records: 198,140;   Date Range: 6/30/96 - 12/20/14
 
SHARE

PRINT THIS DATA

[ ← Previous Day ]
WEATHER ALMANAC - 14 JANUARY, 2013
[ Next Day → ]
[ °F ]   °C
Weather ElementAverageHighLow
Temperature2.3 °C5 °C (7:43 am)-3 °C (10:00 pm)
Dewpoint-6.5 °C4 °C (8:00 am) (7:00 pm)
Humidity77.6 %100 % (1:00 am)42 % (7:00 pm)
Wind Speed22 km/h55.5 km/h (1:28 pm)
Wind Gust68.6 km/h (1:28 pm)
Weather ElementAverage
Visibility11.4 km
Wind DirectionNNW (322.5 °)

Weather ElementTotal
Precipitation---
Heating Degree Days17.3 (Base 18.3)
Averaged from 44 records on 14 January, 2013
WEATHER CONDITIONS BREAKOUT
WIND DIRECTION BREAKOUT
WEATHER BY HOUR - 14 JANUARY, 2013
[ °F ]   °C
Local TimeTemperatureDewpointHumidityBarometerVisibilityWind DirectionWind SpeedGust SpeedPrecipitationEventsConditions
1:00 AM1.7 °C1.7 °C100 %1009.1 hPaNE (50°)1.9 km/h
1:00 AM3 °C2 °C93 %1009.5 hPa0.3 kmSSE (150°)3.7 km/hFogLight Drizzle
2:00 AM3 °C2 °C93 %1008.8 hPa0.3 kmCalmFogLight Drizzle
3:00 AM3 °C2 °C93 %1008.1 hPa0.8 kmNNW (340°)5.6 km/hFogLight Drizzle
4:00 AM3 °C2 °C93 %1006.4 hPa0.8 kmNorth (360°)5.6 km/hFogLight Drizzle
4:00 AM2.2 °C2.2 °C100 %1006.1 hPaCalm
5:00 AM2 °C2 °C100 %1005.4 hPa0.8 kmNE (50°)3.7 km/hFog-RainLight Rain
6:00 AM3 °C2 °C93 %1004.4 hPa2.9 kmCalmRainLight Rain
6:17 AM3 °C-17.8 °C3.2 kmNorth (10°)3.7 km/hRainLight Rain
6:37 AM3 °C-17.8 °C1.6 kmWest (280°)5.6 km/hRainLight Rain
7:00 AM2 °C1 °C93 %1005.8 hPa1 kmWest (260°)16.7 km/hRainLight Rain
7:00 AM1.7 °C1.7 °C100 %1005.1 hPaWest (260°)9.3 km/h
7:12 AM3 °C-17.8 °C0 km12.7 (2013°)0 mmLight Rain260
7:19 AM4 °C-17.8 °C3.2 kmWSW (250°)14.8 km/hRainLight Rain
7:43 AM5 °C-17.8 °C4.8 kmSW (230°)20.4 km/hRainLight Rain Showers
8:00 AM5 °C4 °C93 %1006.8 hPa3.5 kmWSW (240°)22.2 km/hRainLight Rain Showers
8:23 AM4 °C-17.8 °C1.6 kmWSW (240°)25.9 km/h35.2 km/hMist
8:49 AM5 °C-17.8 °C0 km25.3 (2013°)51.8 km/h0 mmFog250
9:00 AM4 °C4 °C100 %1008.8 hPa0.3 kmWSW (250°)40.7 km/h51.8 km/hFogFog
9:28 AM4 °C-17.8 °C1.9 kmWSW (250°)33.3 km/hMist
9:49 AM3 °C-17.8 °C3.2 kmWSW (250°)31.5 km/h46.3 km/hOvercast
10:00 AM4 °C3 °C93 %1010.8 hPa4.8 kmWSW (250°)31.5 km/hMostly Cloudy
10:00 AM3.9 °C3.9 °C100 %1010.2 hPaWSW (250°)22.2 km/h
10:36 AM4 °C-17.8 °C8 kmWSW (240°)33.3 km/hMostly Cloudy
11:00 AM4 °C3 °C93 %1011.9 hPa12.9 kmSW (230°)33.3 km/hMostly Cloudy
12:00 PM4 °C1 °C81 %1012.9 hPa19.3 kmWSW (240°)33.3 km/h44.4 km/hScattered Clouds
1:00 PM3.9 °C0 °C67 %1013.9 hPaWest (260°)31.5 km/h
1:00 PM4 °C-1 °C70 %1014.2 hPa19.3 kmWSW (250°)40.7 km/h59.2 km/hMostly Cloudy
1:28 PM3 °C-17.8 °C4.8 kmWest (270°)55.5 km/h68.6 km/hRainLight Rain Showers
1:35 PM2 °C-17.8 °C4.8 kmWest (280°)40.7 km/h68.6 km/hRain-SnowLight Rain Showers
1:45 PM2 °C-17.8 °C19.3 kmWest (270°)33.3 km/h48.1 km/hMostly Cloudy
2:00 PM2 °C-1 °C81 %1016.6 hPa24.1 kmWest (270°)24.1 km/hMostly Cloudy
3:00 PM3 °C-3 °C65 %1017.9 hPa48.3 kmWest (280°)20.4 km/h35.2 km/hPartly Cloudy
4:00 PM2 °C-5 °C60 %1019.6 hPa48.3 kmWest (280°)29.6 km/h44.4 km/hPartly Cloudy
4:00 PM2.2 °C-5 °C47 %1019.3 hPaWest (280°)24.1 km/h
5:00 PM1 °C-6 °C60 %1020.7 hPa24.1 kmWNW (290°)24.1 km/h35.2 km/hPartly Cloudy
6:00 PM0 °C-9 °C51 %1021 hPa24.1 kmWNW (300°)24.1 km/h35.2 km/hPartly Cloudy
7:00 PM0 °C-7.8 °C42 %1022 hPaWNW (300°)18.5 km/h
7:00 PM-1 °C-9 °C55 %1022 hPa24.1 kmWNW (300°)24.1 km/hPartly Cloudy
8:00 PM-1 °C-9 °C55 %1022.4 hPa24.1 kmWNW (300°)27.8 km/h37 km/hPartly Cloudy
9:00 PM-2 °C-9 °C59 %1023.4 hPa24.1 kmWNW (290°)24.1 km/hPartly Cloudy
10:00 PM-2.2 °C-7.8 °C54 %1023 hPaNW (310°)18.5 km/h
10:00 PM-3 °C-9 °C64 %1023.4 hPa24.1 kmNW (310°)24.1 km/h33.3 km/hPartly Cloudy
11:00 PM-3 °C-10 °C59 %1024 hPa24.1 kmNW (320°)13 km/hPartly Cloudy
Hourly data recorded from CYQB, located 0 kilometers away from Quebec City, Quebec







STORIES FROM OUR PARTNERS